Location: Eexterzandvoort
(53.0303°N, 6.7884°E)
Time: 21:04:59
(UTC+00:00)

Meteor 2-10 Rocket - Pass Details

Date: 19 May 2025
Orbit: 733 x 881 km, 81.2° (Epoch: 15 June)

Event Time Altitude Azimuth Distance (km) Brightness Sun altitude
Rises 22:59:04 0° 349° (NNW) 3,432 8.7 -16.7°
Reaches altitude 10° 23:01:36 10° 355° (N) 2,509 7.5 -16.7°
Maximum altitude 23:07:06 46° 69° (ENE) 1,157 4.5 -16.8°
Enters shadow 23:11:10 18° 136° (SE) 2,017 5.2 -16.9°
